Location: Bailleul
(50.3375°N, 2.8513°E)
Time: 15:26:44
(UTC+00:00)

Cosmos 2016 Rocket - Pass Details

Date: 29 October 2021
Orbit: 946 x 1001 km, 83.0° (Epoch: 30 November)

Event Time Altitude Azimuth Distance (km) Brightness Sun altitude
Rises 19:31:04 0° 196° (SSW) 3,645 7.0 -29.3°
Reaches altitude 10° 19:33:35 10° 198° (SSW) 2,695 6.3 -29.7°
Maximum altitude 19:39:44 69° 282° (WNW) 1,022 4.1 -30.7°
Drops below altitude 10° 19:45:51 10° 6° (N) 2,686 6.4 -31.6°
Sets 19:48:22 0° 9° (N) 3,632 7.1 -32.0°
